Location: Betpouey
(42.8833°N, 0.0333°E)
Time: 21:24:54
(UTC+00:00)

COSMO-SKYMED 1 - Pass Details

Date: 01 December 2020
Orbit: 621 x 623 km, 97.9° (Epoch: 19 January)

Event Time Altitude Azimuth Distance (km) Brightness Sun altitude
Exits shadow 19:00:48 13° 345° (NNW) 1,785 5.0 -27.6°
Maximum altitude 19:03:51 28° 292° (WNW) 1,189 4.5 -28.2°
Drops below altitude 10° 19:07:31 10° 234° (SW) 1,990 5.8 -28.8°
Sets 19:09:55 0° 222° (SW) 2,891 6.6 -29.3°
